Location: Cheyres
(46.8153°N, 6.7877°E)
Time: 03:06:10
(UTC+00:00)

Meteor 1-19 Rocket - Pass Details

Date: 11 May 2021
Orbit: 808 x 927 km, 81.2° (Epoch: 18 June)

Event Time Altitude Azimuth Distance (km) Brightness Sun altitude
Exits shadow 22:19:15 55° 140° (SE) 966 4.1 -23.2°
Maximum altitude 22:20:06 63° 97° (E) 899 4.1 -23.2°
Drops below altitude 10° 22:25:26 10° 17° (NNE) 2,405 7.3 -23.5°
Sets 22:27:51 0° 14° (NNE) 3,346 8.3 -23.6°
